STARLINK-32205 (60266 NORAD) Tracking and Keplerian Element Data

This shows tracking and keplerian element data for the satellite.

Feedback or suggestion? Click here.




ElementValue
Catalog60266
NameSTARLINK-32205
Epoch Orbit1308
Epoch Day286.40426505
Epoch Year2024
RAAN280.0532
Inclination53.1585
Eccentricity0.0001352
Argument of Perigee100.6767
Mean Anonmoly259.4388
Mean Motion15.34214374
Decay Rate0.00029671
L11 60266U 24131M 24286.40426505 .00029671 00000+0 89104-3 0 9998
L22 60266 53.1585 280.0532 0001352 100.6767 259.4388 15.34214374 13082



Live tracking and technical data element details for STARLINK-32205 (NORAD 60266). STARLINK-32205 can be tracked NOW for your location showing map with azimuth and elevation plus other details from your city location.







IsCatalogInMostPopularTable: catalog: 60266, numindb: 11
Update: records affected: 1



GetName: 60266 STARLINK-32205

Hit Count: updated at: Thu, 23 Jan 2025 13:26:11 GMT